Regional Weather Roundup
Issued by NWS

Home | Current Version | Previous Version | Text Only | Print | Product List | Glossary Off
Versions: 1 2 3 4 5 6 7 8 9 10 11 12 13 14 15 16 17 18 19 20 21 22 23 24 25 26 27 28 29 30 31 32 33 34 35 36 37 38 39 40 41 42 43 44 45 46 47 48 49 50

000
ASUS43 KLOT 031613
RWRIL

ILLINOIS REGIONAL WEATHER ROUNDUP
NATIONAL WEATHER SERVICE CHICAGO/ROMEOVILLE IL
1100 AM CDT THU SEP 03 2015

NOTE: "FAIR" INDICATES FEW OR NO CLOUDS BELOW 12,000 FEET WITH NO
SIGNIFICANT WEATHER AND/OR OBSTRUCTIONS TO VISIBILITY.

* THESE STATIONS ARE NOT UNDER NWS QUALITY CONTROL. THEY ALSO MAY NOT
  REPORT WEATHER SUCH AS PRECIPITATION OR FOG.

ILZ001-002-007-009-015-016-024-031700-
NORTHWEST ILLINOIS

CITY           SKY/WX    TMP DP  RH WIND       PRES   REMARKS
MOLINE         MOSUNNY   84  70  62 SW8       29.95S HX  88
STERLING*      SUNNY     88  73  62 W10G16    29.94S HX  96
SAVANNA*       SUNNY     84  70  63 SW7       29.95S HX  88
$$

ILZ003-004-008-010-011-017-018-031700-
NORTH CENTRAL ILLINOIS

CITY           SKY/WX    TMP DP  RH WIND       PRES   REMARKS
ROCKFORD       SUNNY     84  71  65 W8        29.96S HX  89
FREEPORT*      SUNNY     82  72  71 W9        29.97R HX  86
ROCHELLE*      SUNNY     83  72  69 W7        29.96S HX  88
DE KALB*       SUNNY     84  72  68 W8        29.97S HX  89
PERU*          SUNNY     85  68  56 SW9       29.97S HX  88
$$

ILZ005-006-012>014-019>023-031700-
NORTHEAST ILLINOIS

CITY           SKY/WX    TMP DP  RH WIND       PRES   REMARKS
CHICAGO-OHARE  MOSUNNY   85  70  60 W9        29.95R HX  89
CHICAGO-MIDWAY MOSUNNY   87  68  52 SW9       29.95S HX  90
AURORA         SUNNY     84  72  67 SW8       29.97S HX  89
LANSING*       SUNNY     85  68  56 W9        29.97R HX  88
JOLIET*        SUNNY     86  72  63 SW6       29.96F HX  92
WAUKEGAN       PTSUNNY   82  70  66 NW6       29.93S HX  86
DUPAGE AIRPORT SUNNY     84  71  65 SW12      29.95S HX  89
KANKAKEE*      SUNNY     86  72  61 SW10      29.99S HX  92
WHEELING       MOSUNNY   85  70  60 SW7       29.95S HX  89
MORRIS*        SUNNY     84  72  65 W8        29.96S HX  89
ROMEOVILLE*    SUNNY     83  69  61 W8        29.96F HX  87
NORTHERLY ISL    N/A     85  65  51 W6          N/A  HX  86
$$

LMZ740>746-031700-
SOUTHERN LAKE MICHIGAN

STATION/POSITION SKY/WX   TEMP    WIND        PRES    VSBY  WAVE
                          AIR SEA DIR/SP/G                  HT/PER
                          (F)     (DEG/KT/KT) (MB)    (MI)  (FT/S)
SOUTHERN BUOY              72 71  220/  8/ 10 1013.1R         1/ 3
WILMETTE HARBOR            74 60   50/  4/  6   N/A           1
HARRISON CRIB              82     220/  4/  5   N/A
BURNHAM HARBOR             85     270/  7/ 10   N/A
CALUMET HARBOR                    220/  4/ 11   N/A
BURNS HARBOR               82     240/  8/ 14 1014.9S
MICHIGAN CITY              80     190/  8/  9   N/A
MICHIGAN CITY 6N           78 73  250/  4/  6   N/A           1
ST. JOSEPH                 75 72  260/  8/  8   N/A           1/ 3
$$

ILZ025>027-034>036-040-047-049-050-058-095>099-031700-
WEST-CENTRAL ILLINOIS

CITY           SKY/WX    TMP DP  RH WIND       PRES   REMARKS
QUINCY         SUNNY     86  69  56 SW10      30.00S HX  90
GALESBURG*     SUNNY     85  70  60 SW12      29.98S HX  89
MACOMB*        SUNNY     87  69  55 SW7       30.01S HX  90
JACKSONVILLE*  SUNNY     87  72  60 SW5       30.00S HX  94
PITTSFIELD*    SUNNY     87  70  57 SW7       30.02S HX  91
$$

ILZ028>032-037-038-041>044-048-051>054-059>061-031700-
CENTRAL ILLINOIS

CITY           SKY/WX    TMP DP  RH WIND       PRES   REMARKS
PONTIAC        SUNNY     86  73  65 W9        29.99S HX  93
BLOOMINGTON    SUNNY     86  71  60 W12       30.02S HX  91
DECATUR        SUNNY     88  68  51 W12       30.01F HX  91
PEORIA         MOSUNNY   89  70  53 W7        29.99S HX  94
LACON*         SUNNY     83  71  66 W6        29.97S HX  88
LINCOLN*       SUNNY     90  67  47 W5        29.98F HX  93
SPRINGFIELD    SUNNY     89  68  49 SW12      30.00S HX  93
TAYLORVILLE    SUNNY     88  70  55 SW8       30.01S HX  92
$$

ILZ033-039-045-046-055>057-062-063-031700-
EAST-CENTRAL ILLINOIS

CITY           SKY/WX    TMP DP  RH WIND       PRES   REMARKS
CHAMPAIGN      MOSUNNY   87  69  54 SW9       30.01F HX  91
MATTOON        SUNNY     87  68  52 VRB6      30.02S HX  90
PARIS*         SUNNY     87  71  57 SW8       30.02F HX  92
$$

ILZ079-100>102-031700-
SOUTHWEST ILLINOIS

CITY           SKY/WX    TMP DP  RH WIND       PRES   REMARKS
ALTON          SUNNY     84  70  61 SW6       30.01F HX  88
BELLEVILLE     SUNNY     87  72  60 VRB2      30.01S HX  93
CAHOKIA*       SUNNY     87  69  54 VRB5      30.01F HX  91
SPARTA*        SUNNY     85  72  64 SW6       30.04S HX  90
$$

ILZ064>066-069>071-074>076-080>082-084>086-088>090-092>094-031700-
SOUTH-CENTRAL ILLINOIS

CITY           SKY/WX    TMP DP  RH WIND       PRES   REMARKS
CARBONDALE     SUNNY     86  71  60 S6        30.03F HX  91
CAIRO*         SUNNY     85  73  67 CALM      30.04S HX  91
EFFINGHAM*     SUNNY     87  66  49 SW6       30.04S HX  89
MARION         SUNNY     88  70  55 S6        30.05S HX  92
MT. VERNON     SUNNY     88  70  55 SW7       30.03F HX  92
CENTRALIA*     SUNNY     88  73  61 SW7       30.02F HX  95
SALEM*         SUNNY     88  69  53 W6        30.02F HX  92
METROPOLIS*    SUNNY     86  75  68 CALM      30.04F HX  95
$$

ILZ067-068-072-073-078-083-087-091-031700-
SOUTHEAST ILLINOIS

CITY           SKY/WX    TMP DP  RH WIND       PRES   REMARKS
LAWRENCEVILLE  SUNNY     88  69  53 VRB7      30.02F HX  92
FLORA*         SUNNY     87  67  51 SW8       30.02F HX  90
FAIRFIELD*     SUNNY     86  71  60 S7        30.02F HX  91
HARRISBURG*    MOSUNNY   87  70  55 CALM      30.04S HX  92
ROBINSON*      SUNNY     87  69  54 SW8       30.03S HX  91
CARMI*         SUNNY     85  71  61 W7        30.02F HX  90
$$

ABBREVIATIONS USED IN REMARKS
   TC - TEMPERATURE IN CELSIUS
  WCI - WIND CHILL INDEX
   HX - HEAT INDEX
  VSB - VISIBILITY
$$




USA.gov is the U.S. government's official web portal to all federal, state and local government web resources and services.